2016-05-04 00:01:21 r, 18.39m,0000000004Hz,0000118049c,0000000.256s, 024.4C,00002195
2016-05-04 00:11:18 r, 18.39m,0000000004Hz,0000118034c,0000000.256s, 024.4C,00002195
2016-05-04 00:21:19 r, 18.39m,0000000004Hz,0000118740c,0000000.258s, 024.4C,00002195
2016-05-04 00:31:19 r, 18.21m,0000000004Hz,0000099843c,0000000.217s, 024.4C,00002195
2016-05-04 00:41:18 r, 18.40m,0000000004Hz,0000119049c,0000000.258s, 024.1C,00002195
2016-05-04 00:51:18 r, 18.40m,0000000004Hz,0000118932c,0000000.258s, 024.1C,00002195
2016-05-04 01:01:19 r, 18.40m,0000000004Hz,0000119251c,0000000.259s, 024.1C,00002195
2016-05-04 01:11:18 r, 18.40m,0000000004Hz,0000119250c,0000000.259s, 024.1C,00002195
2016-05-04 01:21:18 r, 18.41m,0000000003Hz,0000119888c,0000000.260s, 023.8C,00002195
2016-05-04 01:31:18 r, 18.41m,0000000003Hz,0000119884c,0000000.260s, 023.8C,00002195
2016-05-04 01:41:18 r, 18.40m,0000000004Hz,0000119780c,0000000.260s, 023.8C,00002195
2016-05-04 01:51:18 r, 18.41m,0000000004Hz,0000119948c,0000000.260s, 023.8C,00002195
2016-05-04 02:01:19 r, 18.43m,0000000004Hz,0000120907c,0000000.262s, 023.5C,00002195
2016-05-04 02:11:18 r, 18.43m,0000000004Hz,0000120983c,0000000.263s, 023.5C,00002195
2016-05-04 02:21:18 r, 18.43m,0000000003Hz,0000120980c,0000000.263s, 023.5C,00002195
2016-05-04 02:31:18 r, 18.43m,0000000004Hz,0000121918c,0000000.265s, 023.2C,00002195
2016-05-04 02:41:19 r, 18.43m,0000000004Hz,0000121793c,0000000.264s, 023.2C,00002195
2016-05-04 02:51:18 r, 18.43m,0000000004Hz,0000121853c,0000000.264s, 023.2C,00002195
2016-05-04 03:01:19 r, 18.43m,0000000004Hz,0000120958c,0000000.262s, 023.2C,00002195
2016-05-04 03:11:19 r, 18.42m,0000000004Hz,0000119827c,0000000.260s, 022.8C,00002195
2016-05-04 03:21:18 r, 18.42m,0000000003Hz,0000120218c,0000000.261s, 022.8C,00002195
2016-05-04 03:31:19 r, 18.43m,0000000003Hz,0000121852c,0000000.264s, 022.8C,00002195
2016-05-04 03:41:21 r, 18.44m,0000000004Hz,0000122848c,0000000.267s, 022.5C,00002195
2016-05-04 03:51:19 r, 18.43m,0000000004Hz,0000121950c,0000000.265s, 022.5C,00002195
2016-05-04 04:01:20 r, 18.43m,0000000003Hz,0000121955c,0000000.265s, 022.5C,00002195
2016-05-04 04:11:19 r, 18.42m,0000000003Hz,0000119894c,0000000.260s, 022.5C,00002195
2016-05-04 04:21:18 r, 18.37m,0000000004Hz,0000115177c,0000000.250s, 022.2C,00002195
2016-05-04 04:31:21 r, 18.27m,0000000005Hz,0000104573c,0000000.227s, 022.2C,00002195
2016-05-04 04:41:19 r, 18.01m,0000000006Hz,0000082497c,0000000.179s, 022.2C,00002195
2016-05-04 04:51:19 r, 17.46m,0000000009Hz,0000049988c,0000000.108s, 022.2C,00002195
2016-05-04 05:01:19 r, 16.57m,0000000021Hz,0000022020c,0000000.048s, 022.2C,00002195
2016-05-04 05:11:20 r, 15.18m,0000000074Hz,0000006144c,0000000.013s, 022.2C,00002195
2016-05-04 05:21:18 r, 13.43m,0000000379Hz,0000000000c,0000000.000s, 021.9C,00002195
2016-05-04 05:31:19 r, 11.64m,0000001963Hz,0000000000c,0000000.000s, 021.9C,00002195
2016-05-04 05:41:18 r, 09.97m,0000009170Hz,0000000000c,0000000.000s, 021.5C,00002195
2016-05-04 05:51:18 r, 08.58m,0000033114Hz,0000000000c,0000000.000s, 021.5C,00002195
2016-05-04 06:01:19 r, 07.54m,0000086203Hz,0000000000c,0000000.000s, 021.5C,00002195
2016-05-04 06:11:19 r, 06.82m,0000167139Hz,0000000000c,0000000.000s, 021.5C,00002195
2016-05-04 06:21:18 r, 06.30m,0000268427Hz,0000000000c,0000000.000s, 021.5C,00002195
2016-05-04 06:31:19 r, 05.89m,0000391688Hz,0000000000c,0000000.000s, 021.5C,00002195
2016-05-04 06:41:19 r, 00.00m,0000521674Hz,0000000000c,0000000.000s, 021.5C,00002195
2016-05-04 06:51:18 r, 00.00m,0000563097Hz,0000000000c,0000000.000s, 021.9C,00002195
2016-05-04 07:01:18 r, 00.00m,0000563165Hz,0000000000c,0000000.000s, 021.9C,00002195
2016-05-04 07:11:19 r, 00.00m,0000563162Hz,0000000000c,0000000.000s, 022.2C,00002195
2016-05-04 07:21:18 r, 00.00m,0000563205Hz,0000000000c,0000000.000s, 022.5C,00002195
2016-05-04 07:31:21 r, 00.00m,0000563208Hz,0000000000c,0000000.000s, 023.2C,00002195
2016-05-04 07:41:19 r, 00.00m,0000563251Hz,0000000000c,0000000.000s, 023.5C,00002195
2016-05-04 07:51:18 r, 00.00m,0000563304Hz,0000000000c,0000000.000s, 023.8C,00002195
2016-05-04 08:01:18 r, 00.00m,0000563393Hz,0000000000c,0000000.000s, 024.4C,00002195
2016-05-04 08:11:21 r, 00.00m,0000563518Hz,0000000000c,0000000.000s, 025.1C,00002195
2016-05-04 08:21:18 r, 00.00m,0000563547Hz,0000000000c,0000000.000s, 025.4C,00002195
2016-05-04 08:31:19 r, 00.00m,0000563623Hz,0000000000c,0000000.000s, 026.1C,00002195
2016-05-04 08:41:21 r, 00.00m,0000563801Hz,0000000000c,0000000.000s, 026.7C,00002195
2016-05-04 08:51:18 r, 00.00m,0000563794Hz,0000000000c,0000000.000s, 027.3C,00002195
2016-05-04 09:01:21 r, 00.00m,0000563933Hz,0000000000c,0000000.000s, 028.6C,00002195
2016-05-04 09:11:19 r, 00.00m,0000564340Hz,0000000000c,0000000.000s, 030.9C,00002195
2016-05-04 09:21:18 r, 00.00m,0000564504Hz,0000000000c,0000000.000s, 033.1C,00002195
2016-05-04 09:31:21 r, 00.00m,0000564631Hz,0000000000c,0000000.000s, 034.8C,00002195
2016-05-04 09:41:19 r, 00.00m,0000564807Hz,0000000000c,0000000.000s, 036.0C,00002195
2016-05-04 09:51:18 r, 00.00m,0000564861Hz,0000000000c,0000000.000s, 037.7C,00002195
2016-05-04 10:01:19 r, 00.00m,0000565083Hz,0000000000c,0000000.000s, 039.0C,00002195
2016-05-04 10:11:20 r, 00.00m,0000565106Hz,0000000000c,0000000.000s, 039.9C,00002195
2016-05-04 10:21:18 r, 00.00m,0000565169Hz,0000000000c,0000000.000s, 040.6C,00002195
2016-05-04 10:31:19 r, 00.00m,0000565268Hz,0000000000c,0000000.000s, 041.2C,00002195
2016-05-04 10:41:19 r, 00.00m,0000565242Hz,0000000000c,0000000.000s, 042.2C,00002195
2016-05-04 10:51:18 r, 00.00m,0000565344Hz,0000000000c,0000000.000s, 042.8C,00002195
2016-05-04 11:01:18 r, 00.00m,0000565318Hz,0000000000c,0000000.000s, 043.1C,00002195
2016-05-04 11:11:19 r, 00.00m,0000565404Hz,0000000000c,0000000.000s, 044.1C,00002195
2016-05-04 11:21:18 r, 00.00m,0000565562Hz,0000000000c,0000000.000s, 044.8C,00002195
2016-05-04 11:31:21 r, 00.00m,0000565631Hz,0000000000c,0000000.000s, 045.1C,00002195
2016-05-04 11:41:19 r, 00.00m,0000565661Hz,0000000000c,0000000.000s, 045.4C,00002195
2016-05-04 11:51:21 r, 00.00m,0000565632Hz,0000000000c,0000000.000s, 045.7C,00002195
2016-05-04 12:01:18 r, 00.00m,0000565658Hz,0000000000c,0000000.000s, 046.7C,00002195
2016-05-04 12:11:20 r, 00.00m,0000565624Hz,0000000000c,0000000.000s, 046.7C,00002195
2016-05-04 12:21:18 r, 00.00m,0000565677Hz,0000000000c,0000000.000s, 047.0C,00002195
2016-05-04 12:31:18 r, 00.00m,0000565695Hz,0000000000c,0000000.000s, 047.7C,00002195
2016-05-04 12:41:18 r, 00.00m,0000565746Hz,0000000000c,0000000.000s, 048.3C,00002195
2016-05-04 12:51:18 r, 00.00m,0000565743Hz,0000000000c,0000000.000s, 048.9C,00002195
2016-05-04 13:01:19 r, 00.00m,0000565768Hz,0000000000c,0000000.000s, 048.9C,00002195
2016-05-04 13:11:21 r, 00.00m,0000565806Hz,0000000000c,0000000.000s, 049.6C,00002195
2016-05-04 13:21:18 r, 00.00m,0000565831Hz,0000000000c,0000000.000s, 049.6C,00002195
2016-05-04 13:31:18 r, 00.00m,0000565837Hz,0000000000c,0000000.000s, 049.9C,00002195
2016-05-04 13:41:20 r, 00.00m,0000565872Hz,0000000000c,0000000.000s, 050.6C,00002195
2016-05-04 13:51:18 r, 00.00m,0000565921Hz,0000000000c,0000000.000s, 050.9C,00002195
2016-05-04 14:01:19 r, 00.00m,0000565944Hz,0000000000c,0000000.000s, 050.9C,00002195
2016-05-04 14:11:18 r, 00.00m,0000565861Hz,0000000000c,0000000.000s, 050.6C,00002195
2016-05-04 14:21:21 r, 00.00m,0000565810Hz,0000000000c,0000000.000s, 050.9C,00002195
2016-05-04 14:31:18 r, 00.00m,0000565776Hz,0000000000c,0000000.000s, 051.2C,00002195
2016-05-04 14:41:19 r, 00.00m,0000565896Hz,0000000000c,0000000.000s, 051.2C,00002195
2016-05-04 14:51:18 r, 00.00m,0000565798Hz,0000000000c,0000000.000s, 051.2C,00002195
2016-05-04 15:01:19 r, 00.00m,0000565770Hz,0000000000c,0000000.000s, 051.5C,00002195
2016-05-04 15:11:19 r, 00.00m,0000565828Hz,0000000000c,0000000.000s, 051.5C,00002195
2016-05-04 15:21:18 r, 00.00m,0000565823Hz,0000000000c,0000000.000s, 051.2C,00002195
2016-05-04 15:31:21 r, 00.00m,0000565782Hz,0000000000c,0000000.000s, 050.9C,00002195
2016-05-04 15:41:19 r, 00.00m,0000565744Hz,0000000000c,0000000.000s, 050.6C,00002195
2016-05-04 15:51:18 r, 00.00m,0000565771Hz,0000000000c,0000000.000s, 050.9C,00002195
2016-05-04 16:01:19 r, 00.00m,0000565733Hz,0000000000c,0000000.000s, 050.9C,00002195
2016-05-04 16:11:19 r, 00.00m,0000565734Hz,0000000000c,0000000.000s, 051.2C,00002195
2016-05-04 16:21:18 r, 00.00m,0000565687Hz,0000000000c,0000000.000s, 050.9C,00002195
2016-05-04 16:31:20 r, 00.00m,0000565578Hz,0000000000c,0000000.000s, 048.9C,00002195
2016-05-04 16:41:19 r, 00.00m,0000565501Hz,0000000000c,0000000.000s, 048.3C,00002195
2016-05-04 16:51:19 r, 00.00m,0000565354Hz,0000000000c,0000000.000s, 046.7C,00002195
2016-05-04 17:01:19 r, 00.00m,0000565253Hz,0000000000c,0000000.000s, 045.4C,00002195
2016-05-04 17:11:19 r, 00.00m,0000565184Hz,0000000000c,0000000.000s, 044.8C,00002195
2016-05-04 17:21:19 r, 00.00m,0000565157Hz,0000000000c,0000000.000s, 043.8C,00002195
2016-05-04 17:31:21 r, 00.00m,0000565135Hz,0000000000c,0000000.000s, 042.8C,00002195
2016-05-04 17:41:19 r, 00.00m,0000565012Hz,0000000000c,0000000.000s, 041.9C,00002195
2016-05-04 17:51:19 r, 00.00m,0000564941Hz,0000000000c,0000000.000s, 040.6C,00002195
2016-05-04 18:01:21 r, 00.00m,0000564852Hz,0000000000c,0000000.000s, 040.2C,00002195
2016-05-04 18:11:19 r, 00.00m,0000564804Hz,0000000000c,0000000.000s, 040.2C,00002195
2016-05-04 18:21:19 r, 00.00m,0000564790Hz,0000000000c,0000000.000s, 040.2C,00002195
2016-05-04 18:31:19 r, 00.00m,0000564796Hz,0000000000c,0000000.000s, 039.9C,00002195
2016-05-04 18:41:19 r, 00.00m,0000564685Hz,0000000000c,0000000.000s, 039.0C,00002195
2016-05-04 18:51:19 r, 00.00m,0000564678Hz,0000000000c,0000000.000s, 038.6C,00002195
2016-05-04 19:01:19 r, 00.00m,0000564665Hz,0000000000c,0000000.000s, 038.0C,00002195
2016-05-04 19:11:21 r, 00.00m,0000564562Hz,0000000000c,0000000.000s, 037.7C,00002195
2016-05-04 19:21:19 r, 00.00m,0000564577Hz,0000000000c,0000000.000s, 037.3C,00002195
2016-05-04 19:31:20 r, 00.00m,0000564464Hz,0000000000c,0000000.000s, 036.7C,00002195
2016-05-04 19:41:19 r, 00.00m,0000564472Hz,0000000000c,0000000.000s, 036.7C,00002195
2016-05-04 19:51:20 r, 00.00m,0000564426Hz,0000000000c,0000000.000s, 036.4C,00002195
2016-05-04 20:01:19 r, 00.00m,0000564452Hz,0000000000c,0000000.000s, 035.7C,00002195
2016-05-04 20:11:19 r, 00.00m,0000500773Hz,0000000000c,0000000.000s, 035.7C,00002195
2016-05-04 20:21:21 r, 05.97m,0000365887Hz,0000000000c,0000000.000s, 035.1C,00002195
2016-05-04 20:31:19 r, 06.49m,0000226625Hz,0000000000c,0000000.000s, 034.4C,00002195
2016-05-04 20:41:20 r, 07.08m,0000131449Hz,0000000000c,0000000.000s, 033.8C,00002195
2016-05-04 20:51:19 r, 07.81m,0000067259Hz,0000000000c,0000000.000s, 033.1C,00002195
2016-05-04 21:01:19 r, 08.78m,0000027451Hz,0000000000c,0000000.000s, 032.8C,00002195
2016-05-04 21:11:21 r, 10.23m,0000007215Hz,0000000000c,0000000.000s, 032.5C,00002195
2016-05-04 21:21:19 r, 11.91m,0000001530Hz,0000000000c,0000000.000s, 031.9C,00002195
2016-05-04 21:31:19 r, 13.69m,0000000298Hz,0000000000c,0000000.000s, 031.5C,00002195
2016-05-04 21:41:19 r, 15.36m,0000000064Hz,0000007254c,0000000.016s, 031.2C,00002195
2016-05-04 21:51:19 r, 16.61m,0000000020Hz,0000023023c,0000000.050s, 031.2C,00002195
2016-05-04 22:01:19 r, 17.39m,0000000009Hz,0000047099c,0000000.102s, 030.9C,00002195
2016-05-04 22:11:20 r, 17.75m,0000000007Hz,0000065948c,0000000.143s, 030.9C,00002195
2016-05-04 22:21:19 r, 17.93m,0000000006Hz,0000077790c,0000000.169s, 030.6C,00002195
2016-05-04 22:31:19 r, 18.02m,0000000005Hz,0000084284c,0000000.183s, 030.6C,00002195
2016-05-04 22:41:20 r, 18.05m,0000000005Hz,0000086427c,0000000.188s, 030.6C,00002195
2016-05-04 22:51:19 r, 18.06m,0000000005Hz,0000087431c,0000000.190s, 030.2C,00002195
2016-05-04 23:01:19 r, 18.05m,0000000005Hz,0000086377c,0000000.187s, 030.2C,00002195
2016-05-04 23:11:20 r, 18.05m,0000000005Hz,0000086567c,0000000.188s, 030.6C,00002195
2016-05-04 23:21:20 r, 18.08m,0000000005Hz,0000088947c,0000000.193s, 030.9C,00002195
2016-05-04 23:31:19 r, 18.08m,0000000005Hz,0000089291c,0000000.194s, 031.2C,00002195
2016-05-04 23:41:20 r, 18.10m,0000000005Hz,0000090221c,0000000.196s, 031.2C,00002195
2016-05-04 23:51:20 r, 18.11m,0000000005Hz,0000091196c,0000000.198s, 031.2C,00002195
